Home   Weather   Lingen (Ems)   Past weeks

Flag for Germany Past Weather in Lingen (Ems), Lower Saxony, Germany — Yesterday and Last 2 Weeks

Now
61 °F

Refreshingly cool.


Feels Like: 61 °F
Forecast: 58 / 70 °F
Wind: 3 mph from Southwest

Location: Meppen

Current Time: Sep 28, 2016 at 3:48:48 AM

Latest Report: Sep 28, 2016 at 3:00 AM


Visibility: 6 mi

Pressure: 30.20 "Hg

Humidity: 57%

Dew Point: 46 °F

Location of Lingen (Ems)Location

Past Weather in Lingen (Ems) — Graph

°F

Lingen (Ems) Temperature Yesterday

Maximum temperature yesterday: 71 °F (at 3:00 PM)
Minimum temperature yesterday: 44 °F (at 7:00 AM)
Average temperature yesterday: 57 °F

High & Low Weather Summary for the Past Weeks

 TemperatureHumidityPressure
High89 °F (Sep 13, 6:00 PM)97% (Sep 20, 4:00 AM)30.31 "Hg (Sep 20, 4:00 AM)
Low42 °F (Sep 24, 4:00 AM)32% (Sep 13, 6:00 PM)29.84 "Hg (Sep 16, 12:00 AM)
Average61 °F73%30.09 "Hg
* Reported Sep 13 1:00 AM — Sep 28 1:00 AM, Lingen (Ems), Weather by CustomWeather, © 2016

Note: Actual official high and low records may vary slightly from our data, if they occured in-between our weather recording intervals... More about our weather records

Advertising

Lingen (Ems) Weather History for the Previous 24 Hours

Scroll right to see more
 ConditionsComfort  
Time TempWeatherWind HumidityBarometerVisibility
1:00 AM
Wed, Sep 28
61 °FCool.3 mph62%30.23 "Hg6 mi
12:00 AM61 °FCool.3 mph62%30.24 "Hg6 mi
10:00 PM
Tue, Sep 27
55 °FCool.1 mph78%30.27 "Hg5 mi
9:00 PM57 °FCool.1 mph73%30.28 "Hg5 mi
7:00 PM65 °FMild.2 mph51%30.27 "Hg6 mi
6:00 PM69 °FMild.3 mph44%30.26 "Hg7 mi
4:00 PM71 °FScattered clouds.5 mph41%30.27 "Hg28 mi
3:00 PM71 °FPassing clouds.3 mph41%30.28 "Hg28 mi
1:00 PM69 °FPassing clouds.3 mph53%30.29 "Hg25 mi
12:00 PM66 °FPassing clouds.2 mph62%30.31 "Hg22 mi
10:00 AM57 °FSunny.1 mph84%30.30 "Hg19 mi
9:00 AM48 °FPassing clouds.1 mph96%30.29 "Hg16 mi
7:00 AM44 °FFog.No wind96%30.28 "Hg19 mi
6:00 AM44 °FFog.1 mph96%30.27 "Hg19 mi
4:00 AM46 °FCool.No wind96%30.27 "Hg0 mi
3:00 AM47 °FCool.No wind96%30.26 "Hg0 mi
Weather by CustomWeather, © 2016

See weather overviewHow to use our weather pages